Location: Castelbiague
(43.0361°N, 0.9246°E)
Time: 15:13:42
(UTC+00:00)

Cosmos 2237 Rocket - Pass Details

Date: 17 June 2021
Orbit: 835 x 850 km, 71.0° (Epoch: 31 July)

Event Time Altitude Azimuth Distance (km) Brightness Sun altitude
Exits shadow 23:08:30 51° 185° (S) 1,046 2.3 -22.6°
Maximum altitude 23:09:57 77° 113° (ESE) 859 2.1 -22.7°
Drops below altitude 10° 23:15:35 10° 27° (NNE) 2,454 5.3 -22.9°
Sets 23:18:02 0° 26° (NNE) 3,392 6.2 -22.9°
